• In Portugal
  • List of Countries
  • For 7 days
  • Water Temperature
  • Satellite Maps
  • Weather Map
  • Weather Widgets
  • user-avatar
    Login

    Hourly Weather Mörön

    Today, 19 October, Thursday

    Time Temperature Precipitation Wind Pressure Humidity
    00:00 +2°C° 0 mm 1 mps 619 mmHg 73%
    01:00 +2°C° 0 mm 1 mps 618 mmHg 73%
    02:00 +2°C° 0 mm 1 mps 618 mmHg 72%
    03:00 +2°C° 0 mm 1 mps 618 mmHg 72%
    04:00 +1°C° 0 mm 1 mps 618 mmHg 71%
    05:00 +1°C° 0 mm 1 mps 618 mmHg 71%
    06:00 -1°C° 0 mm 2 mps 618 mmHg 71%
    07:00 -1°C° 0 mm 2 mps 617 mmHg 68%
    08:00 +1°C° 0 mm 2 mps 618 mmHg 66%
    09:00 +2°C° 0 mm 2 mps 618 mmHg 64%
    10:00 +4°C° 0 mm 2 mps 618 mmHg 62%
    11:00 +4°C° 0 mm 3 mps 618 mmHg 60%
    12:00 +5°C° 0 mm 3 mps 618 mmHg 57%
    13:00 +7°C° 0 mm 3 mps 618 mmHg 55%
    14:00 +5°C° 0 mm 3 mps 618 mmHg 57%
    15:00 +6°C° 0 mm 2 mps 618 mmHg 60%
    16:00 +5°C° 0 mm 2 mps 618 mmHg 62%
    17:00 +4°C° 0 mm 2 mps 618 mmHg 65%
    18:00 +2°C° 0 mm 2 mps 618 mmHg 68%
    19:00 +1°C° 0 mm 2 mps 618 mmHg 71%
    20:00 +1°C° 0 mm 2 mps 619 mmHg 71%
    21:00 +2°C° 0 mm 1 mps 619 mmHg 72%
    22:00 +1°C° 0 mm 1 mps 619 mmHg 72%
    23:00 +1°C° 0 mm 1 mps 619 mmHg 72%

    Tomorrow, 20 October, Friday

    Time Temperature Precipitation Wind Pressure Humidity
    00:00 +1°C° 0 mm 1 mps 619 mmHg 72%
    01:00 0°C° 0 mm 0 mps 619 mmHg 73%
    02:00 0°C° 0 mm 0 mps 619 mmHg 73%
    03:00 0°C° 0 mm 0 mps 619 mmHg 73%
    04:00 0°C° 0 mm 0 mps 619 mmHg 73%
    05:00 0°C° 0 mm 0 mps 619 mmHg 73%
    06:00 0°C° 0 mm 0 mps 619 mmHg 73%
    07:00 0°C° 0 mm 0 mps 619 mmHg 73%
    08:00 +1°C° 0.1 mm 0 mps 619 mmHg 71%
    09:00 +3°C° 0.1 mm 1 mps 620 mmHg 69%
    10:00 +3°C° 0.1 mm 1 mps 620 mmHg 67%
    11:00 +4°C° 0.1 mm 1 mps 619 mmHg 67%
    12:00 +4°C° 0.1 mm 1 mps 619 mmHg 67%
    13:00 +5°C° 0.1 mm 1 mps 619 mmHg 67%
    14:00 +4°C° 0.1 mm 1 mps 619 mmHg 71%
    15:00 +4°C° 0.1 mm 1 mps 618 mmHg 74%
    16:00 +3°C° 0.1 mm 2 mps 618 mmHg 77%
    17:00 +2°C° 0.1 mm 2 mps 619 mmHg 78%
    18:00 +1°C° 0.1 mm 2 mps 619 mmHg 78%
    19:00 0°C° 0.1 mm 3 mps 619 mmHg 79%
    20:00 -1°C° 0 mm 3 mps 619 mmHg 78%
    21:00 -1°C° 0 mm 3 mps 620 mmHg 77%
    22:00 -2°C° 0 mm 4 mps 620 mmHg 77%
    23:00 -3°C° 0 mm 4 mps 620 mmHg 78%

    Day after tomorrow, 21 October, Saturday

    Time Temperature Precipitation Wind Pressure Humidity
    00:00 -3°C° 0 mm 4 mps 620 mmHg 79%
    01:00 -3°C° 0 mm 4 mps 620 mmHg 80%
    02:00 -2°C° 0 mm 3 mps 620 mmHg 80%
    03:00 -4°C° 0 mm 3 mps 620 mmHg 81%
    04:00 -4°C° 0 mm 3 mps 620 mmHg 81%
    05:00 -4°C° 0 mm 3 mps 621 mmHg 81%
    06:00 -4°C° 0 mm 3 mps 621 mmHg 81%
    07:00 -5°C° 0 mm 3 mps 621 mmHg 80%
    08:00 -2°C° 0 mm 3 mps 622 mmHg 73%
    09:00 -1°C° 0 mm 3 mps 622 mmHg 67%
    10:00 +1°C° 0 mm 3 mps 623 mmHg 60%
    11:00 +1°C° 0 mm 3 mps 623 mmHg 55%
    12:00 +1°C° 0 mm 4 mps 623 mmHg 50%
    13:00 +3°C° 0 mm 4 mps 623 mmHg 46%
    14:00 +3°C° 0 mm 3 mps 623 mmHg 48%
    15:00 +2°C° 0 mm 3 mps 623 mmHg 51%
    16:00 +3°C° 0 mm 2 mps 622 mmHg 53%
    17:00 +2°C° 0 mm 2 mps 622 mmHg 57%
    18:00 -1°C° 0 mm 2 mps 623 mmHg 60%
    19:00 -2°C° 0 mm 2 mps 623 mmHg 64%
    20:00 -2°C° 0 mm 2 mps 623 mmHg 64%
    21:00 -2°C° 0 mm 2 mps 623 mmHg 64%
    22:00 -2°C° 0 mm 2 mps 623 mmHg 65%
    23:00 -3°C° 0 mm 2 mps 623 mmHg 65%

    22 October, Sunday

    Time Temperature Precipitation Wind Pressure Humidity
    00:00 -3°C° 0 mm 2 mps 623 mmHg 65%
    01:00 -1°C° 0 mm 1 mps 623 mmHg 64%
    02:00 -1°C° 0 mm 1 mps 623 mmHg 64%
    03:00 -1°C° 0 mm 1 mps 622 mmHg 64%
    04:00 -1°C° 0 mm 1 mps 622 mmHg 64%
    05:00 -1°C° 0 mm 1 mps 622 mmHg 63%
    06:00 -1°C° 0 mm 1 mps 622 mmHg 63%
    07:00 -1°C° 0 mm 1 mps 622 mmHg 62%
    08:00 0°C° 0 mm 1 mps 622 mmHg 57%
    09:00 +1°C° 0 mm 1 mps 622 mmHg 52%
    10:00 +3°C° 0 mm 1 mps 623 mmHg 47%
    11:00 +4°C° 0 mm 1 mps 622 mmHg 43%
    12:00 +5°C° 0 mm 1 mps 622 mmHg 40%
    13:00 +6°C° 0 mm 1 mps 621 mmHg 37%
    14:00 +5°C° 0 mm 1 mps 621 mmHg 41%
    15:00 +5°C° 0 mm 1 mps 620 mmHg 44%
    16:00 +5°C° 0 mm 1 mps 620 mmHg 47%
    17:00 +4°C° 0 mm 1 mps 620 mmHg 49%
    18:00 +3°C° 0 mm 1 mps 620 mmHg 51%
    19:00 +1°C° 0 mm 1 mps 620 mmHg 53%
    20:00 +1°C° 0 mm 1 mps 620 mmHg 54%
    21:00 +1°C° 0 mm 1 mps 620 mmHg 54%
    22:00 +1°C° 0 mm 1 mps 620 mmHg 54%
    23:00 -1°C° 0 mm 2 mps 620 mmHg 54%

    23 October, Monday

    Time Temperature Precipitation Wind Pressure Humidity
    00:00 -1°C° 0 mm 2 mps 620 mmHg 54%
    01:00 -1°C° 0 mm 2 mps 620 mmHg 55%
    02:00 -1°C° 0 mm 2 mps 620 mmHg 55%
    03:00 -2°C° 0 mm 2 mps 620 mmHg 55%
    04:00 -2°C° 0 mm 2 mps 620 mmHg 55%
    05:00 -2°C° 0 mm 2 mps 620 mmHg 55%
    06:00 -2°C° 0 mm 2 mps 620 mmHg 55%
    07:00 -2°C° 0 mm 2 mps 620 mmHg 54%
    08:00 -1°C° 0 mm 2 mps 620 mmHg 51%
    09:00 +2°C° 0 mm 2 mps 621 mmHg 47%
    10:00 +3°C° 0 mm 2 mps 621 mmHg 43%
    11:00 +4°C° 0 mm 2 mps 621 mmHg 40%
    12:00 +6°C° 0 mm 2 mps 621 mmHg 38%
    13:00 +7°C° 0 mm 3 mps 620 mmHg 35%
    14:00 +6°C° 0 mm 2 mps 620 mmHg 39%
    15:00 +5°C° 0 mm 2 mps 620 mmHg 42%
    16:00 +5°C° 0 mm 2 mps 619 mmHg 46%
    17:00 +4°C° 0 mm 2 mps 620 mmHg 49%
    18:00 +2°C° 0 mm 2 mps 620 mmHg 51%
    19:00 +1°C° 0 mm 2 mps 620 mmHg 54%
    20:00 +1°C° 0 mm 2 mps 620 mmHg 55%
    21:00 +1°C° 0 mm 2 mps 620 mmHg 55%
    22:00 -1°C° 0 mm 2 mps 620 mmHg 55%
    23:00 -1°C° 0 mm 2 mps 620 mmHg 56%

    24 October, Tuesday

    Time Temperature Precipitation Wind Pressure Humidity
    00:00 -1°C° 0 mm 2 mps 620 mmHg 56%
    01:00 -1°C° 0 mm 2 mps 620 mmHg 56%
    02:00 -1°C° 0 mm 2 mps 620 mmHg 56%
    03:00 +1°C° 0 mm 1 mps 620 mmHg 56%
    04:00 +1°C° 0 mm 1 mps 620 mmHg 56%
    05:00 +1°C° 0 mm 1 mps 620 mmHg 56%
    06:00 0°C° 0 mm 1 mps 621 mmHg 56%
    07:00 0°C° 0 mm 1 mps 621 mmHg 56%
    08:00 +2°C° 0 mm 1 mps 621 mmHg 51%
    09:00 +3°C° 0 mm 1 mps 621 mmHg 47%
    10:00 +4°C° 0 mm 1 mps 621 mmHg 43%
    11:00 +5°C° 0 mm 1 mps 621 mmHg 40%
    12:00 +6°C° 0 mm 1 mps 621 mmHg 38%
    13:00 +7°C° 0 mm 1 mps 621 mmHg 35%
    14:00 +6°C° 0 mm 0 mps 620 mmHg 39%
    15:00 +5°C° 0 mm 0 mps 620 mmHg 43%
    16:00 +5°C° 0 mm 0 mps 620 mmHg 47%
    17:00 +4°C° 0 mm 0 mps 620 mmHg 49%
    18:00 +2°C° 0 mm 0 mps 620 mmHg 50%
    19:00 +1°C° 0 mm 0 mps 620 mmHg 52%
    20:00 +2°C° 0 mm 1 mps 620 mmHg 53%
    21:00 +2°C° 0 mm 1 mps 620 mmHg 53%
    22:00 +2°C° 0 mm 1 mps 620 mmHg 54%
    23:00 +2°C° 0 mm 1 mps 620 mmHg 54%
    Show more